TITAN 3C TRANSTAGE DEB, 20760

Orbit data source: Space-Track

TITAN 3C TRANSTAGE DEB, 20760 is space debris in HEO originally from a launch on Tue, 21 Dec 1965 UTC launched from the Air Force Eastern Test Range (AFETR). Debris objects in space refer to the collection of defunct objects orbiting the Earth. Examples of debris include non-operational satellites, rocket bodies, and fragments generated from explosions, collisions, or faulty payload assembly.

Loading next visibility...
Identifier
20760, 1965-108AE
Orbit
HEO
Country
Flag of USUS
Related business
Manufacturer
Unknown
Mission
Spacecraft
Bus & Motor
Unknown
Mass
Unknown
Launch date (UTC)
1965-12-21 (60 years ago)
Launch vehicle
Unknown
Launch site
Air Force Eastern Test Range (AFETR)
Object type
Payload
Rocket body
Debris
Shape & HBR
Unknown shape, 0.2 m
Radar Cross Section
Medium (>0.1 m² and <1 m²)

Expand to show TLE details & history
Last TLE update: 19 hours ago

TLE from 19 hours ago
0 TITAN 3C TRANSTAGE DEB
1 20760U 65108AE  25290.60000372  .00001134  00000-0  92692-2 0  9990
2 20760  27.1417  70.1784 6703024 124.7279 355.1164  2.84462905144442
Epoch: 2025-10-17T14:24Z
TLE epoch observation values (Epoch: 2025-10-17T14:24:00.321Z)
Latitude
27.24074°
Longitude
-79.5415°
Altitude
1,002.158 km
Speed
9.441 km/s
True Right ascension
10h 51m 12s
True Declination
27° 06' 20"
Sunlit
Object was in daylight at epoch
Visualization orbit readout
Latitude
Unknown
Longitude
Unknown
Altitude
Unknown
Speed
Unknown
Apparent Right ascension
Unknown
Apparent Declination
Unknown
Sunlit
N/A
Visualization observer readout
Local Sidereal Time
04:37:48
Azimuth
Unknown
Elevation
Unknown
Doppler factor
Unknown
Orbital elements
Apogee altitude
28,771.392 km
Perigee altitude
559.957 km
Semi-major axis
21,043.812 km
Eccentricity
0.6703
Inclination
27.1417°
RAAN
70.1784°
Arg. of periapsis
124.7279°
True anomaly
328.04555°
Mean anomaly
355.1164°
Eccentric anomaly
345.50123°
Mean motion
0.71098 °/min
Orbital period
506.34 mins
BSTAR
0.0092692

Documentation

Showing up to 5 results
|